KG5VSR Weather Reports


Display with metric or nautical units.
time (UTC)temp
F
wind
direction
speed
MPH
gust
MPH
rain 1hr
in
rain 24hr
in
rain mn
in
humidity
%
barometer
mb
20260504014813 74 156 3.0 5.0 0.00 0.00 0.00 49 1016.1
20260504011808 75 205 2.0 3.0 0.00 0.00 0.00 48 1016.0
20260504004804 76 169 3.0 5.0 0.00 0.00 0.00 45 1015.9
20260504001803 78 207 4.0 5.0 0.00 0.00 0.00 43 1016.0
20260503234759 79 175 3.0 5.0 0.00 0.00 0.00 40 1016.2
20260503231753 80 171 2.0 2.0 0.00 0.00 0.00 40 1016.2
20260503224749 81 213 6.0 9.0 0.00 0.00 0.00 38 1016.3
20260503221745 82 179 6.0 8.0 0.00 0.00 0.00 36 1016.8
20260503214740 82 182 8.0 9.0 0.00 0.00 0.00 37 1016.7
20260503211735 83 263 2.0 3.0 0.00 0.00 0.00 38 1017.4
20260503204735 83 264 2.0 2.0 0.00 0.00 0.00 38 1018.0
20260503201732 85 180 1.0 2.0 0.00 0.00 0.00 34 1018.5
20260503194731 84 193 3.0 5.0 0.00 0.00 0.00 35 1018.8
20260503191731 84 240 3.0 3.0 0.00 0.00 0.00 36 1019.7
20260503184727 82 249 0.0 1.0 0.00 0.00 0.00 39 1019.8
20260503181721 83 152 6.0 7.0 0.00 0.00 0.00 40 1020.2
20260503174720 81 302 3.0 3.0 0.00 0.00 0.00 43 1021.0
20260503171717 80 249 2.0 2.0 0.00 0.00 0.00 45 1021.5
20260503081629 55 145 0.0 0.0 0.00 0.00 0.00 84 1020.3
20260503071625 57 146 0.0 0.0 0.00 0.00 0.00 77 1020.8
20260503054614 60 153 0.0 0.0 0.00 0.00 0.00 70 1020.8
20260503051613 61 150 0.0 0.0 0.00 0.00 0.00 67 1020.3
20260503044613 63 167 0.0 1.0 0.00 0.00 0.00 64 1020.5
20260503041611 64 157 0.0 1.0 0.00 0.00 0.00 62 1020.2
20260503034606 62 277 0.0 0.0 0.00 0.00 0.00 66 1020.5
20260503031604 62 281 0.0 0.0 0.00 0.00 0.00 66 1020.2
20260503024602 62 281 0.0 0.0 0.00 0.00 0.00 63 1020.2
20260503021600 64 281 0.0 0.0 0.00 0.00 0.00 63 1019.6